contact:dominique.lefevre@mio.osupytheas.fr, maurice.libes@osupytheas.fr, didier.mallarino@osupytheas.fr
Project:EMSO http://www.emso-fr.org/EMSO-France
Depth: 2436.0 m
Title:EMSO Ligure Ouest : Data MII capteur MICROCAT
DateTime_Computer,Latitude,Longitude,Temperature,Conductivity,Pressure,DateTime_Instrument
DateTime_Computer,Latitude,Longitude,degC,S m-1,dbar,DateTime_Instrument
2023-05-26T00:01:21Z,42.805,6.029,13.3029,4.60105,2470.763,2023-5-26T02:03:34Z
2023-05-26T00:04:24Z,42.805,6.029,13.3026,4.60100,2470.81,2023-5-26T02:06:37Z
2023-05-26T00:07:28Z,42.805,6.029,13.3033,4.60103,2470.8,2023-5-26T02:09:40Z
2023-05-26T00:10:31Z,42.805,6.029,13.3029,4.60097,2470.824,2023-5-26T02:12:43Z
2023-05-26T00:13:34Z,42.805,6.029,13.3023,4.60095,2470.81,2023-5-26T02:15:46Z
2023-05-26T00:16:37Z,42.805,6.029,13.3023,4.60095,2470.8,2023-5-26T02:18:49Z
2023-05-26T00:19:40Z,42.805,6.029,13.3029,4.60104,2470.824,2023-5-26T02:21:52Z
2023-05-26T00:22:43Z,42.805,6.029,13.3031,4.60093,2470.833,2023-5-26T02:24:55Z
2023-05-26T00:25:46Z,42.805,6.029,13.3024,4.60099,2470.81,2023-5-26T02:27:58Z
2023-05-26T00:28:49Z,42.805,6.029,13.3029,4.60099,2470.787,2023-5-26T02:31:01Z
2023-05-26T00:31:52Z,42.805,6.029,13.3025,4.60100,2470.8,2023-5-26T02:34:05Z
2023-05-26T00:34:55Z,42.805,6.029,13.3025,4.60093,2470.81,2023-5-26T02:37:08Z
2023-05-26T00:37:58Z,42.805,6.029,13.3024,4.60099,2470.787,2023-5-26T02:40:11Z
2023-05-26T00:41:01Z,42.805,6.029,13.3030,4.60099,2470.824,2023-5-26T02:43:14Z
2023-05-26T00:44:04Z,42.805,6.029,13.3022,4.60099,2470.824,2023-5-26T02:46:17Z
2023-05-26T00:47:08Z,42.805,6.029,13.3028,4.60099,2470.8,2023-5-26T02:49:20Z
2023-05-26T00:50:11Z,42.805,6.029,13.3027,4.60088,2470.787,2023-5-26T02:52:23Z
2023-05-26T00:53:14Z,42.805,6.029,13.3024,4.60099,2470.754,2023-5-26T02:55:26Z
2023-05-26T00:56:17Z,42.805,6.029,13.3024,4.60102,2470.787,2023-5-26T02:58:29Z
2023-05-26T00:59:20Z,42.805,6.029,13.3023,4.60105,2470.8,2023-5-26T03:01:32Z
2023-05-26T01:02:23Z,42.805,6.029,13.3027,4.60090,2470.777,2023-5-26T03:04:35Z
2023-05-26T01:05:26Z,42.805,6.029,13.3021,4.60096,2470.763,2023-5-26T03:07:38Z
2023-05-26T01:08:29Z,42.805,6.029,13.3025,4.60091,2470.81,2023-5-26T03:10:41Z
2023-05-26T01:11:32Z,42.805,6.029,13.3027,4.60106,2470.824,2023-5-26T03:13:45Z
2023-05-26T01:14:35Z,42.805,6.029,13.3024,4.60109,2470.787,2023-5-26T03:16:48Z
2023-05-26T01:17:38Z,42.805,6.029,13.3021,4.60089,2470.787,2023-5-26T03:19:51Z
2023-05-26T01:20:41Z,42.805,6.029,13.3027,4.60093,2470.763,2023-5-26T03:22:54Z
2023-05-26T01:23:45Z,42.805,6.029,13.3026,4.60097,2470.8,2023-5-26T03:25:57Z
2023-05-26T01:26:48Z,42.805,6.029,13.3028,4.60109,2470.754,2023-5-26T03:29:00Z
2023-05-26T01:29:51Z,42.805,6.029,13.3026,4.60097,2470.787,2023-5-26T03:32:03Z
2023-05-26T01:32:54Z,42.805,6.029,13.3018,4.60089,2470.8,2023-5-26T03:35:06Z
2023-05-26T01:35:57Z,42.805,6.029,13.3028,4.60096,2470.8,2023-5-26T03:38:09Z
2023-05-26T01:39:00Z,42.805,6.029,13.3028,4.60096,2470.787,2023-5-26T03:41:12Z
2023-05-26T01:42:03Z,42.805,6.029,13.3029,4.60107,2470.777,2023-5-26T03:44:15Z
2023-05-26T01:45:06Z,42.805,6.029,13.3026,4.60103,2470.81,2023-5-26T03:47:18Z
2023-05-26T01:48:09Z,42.805,6.029,13.3027,4.60094,2470.787,2023-5-26T03:50:22Z
2023-05-26T01:51:12Z,42.805,6.029,13.3029,4.60097,2470.8,2023-5-26T03:53:25Z
2023-05-26T01:54:15Z,42.805,6.029,13.3026,4.60097,2470.8,2023-5-26T03:56:28Z
2023-05-26T01:57:18Z,42.805,6.029,13.3024,4.60095,2470.754,2023-5-26T03:59:31Z
2023-05-26T02:00:21Z,42.805,6.029,13.3026,4.60090,2470.8,2023-5-26T04:02:34Z
2023-05-26T02:03:25Z,42.805,6.029,13.3031,4.60114,2470.787,2023-5-26T04:05:37Z
2023-05-26T02:06:28Z,42.805,6.029,13.3028,4.60103,2470.777,2023-5-26T04:08:40Z
2023-05-26T02:09:31Z,42.805,6.029,13.3026,4.60097,2470.763,2023-5-26T04:11:43Z
2023-05-26T02:12:34Z,42.805,6.029,13.3031,4.60099,2470.777,2023-5-26T04:14:46Z
2023-05-26T02:15:37Z,42.805,6.029,13.3026,4.60099,2470.8,2023-5-26T04:17:49Z
2023-05-26T02:18:40Z,42.805,6.029,13.3028,4.60104,2470.787,2023-5-26T04:20:52Z
2023-05-26T02:21:43Z,42.805,6.029,13.3025,4.60094,2470.777,2023-5-26T04:23:55Z
2023-05-26T02:24:46Z,42.805,6.029,13.3024,4.60102,2470.787,2023-5-26T04:26:58Z
2023-05-26T02:27:49Z,42.805,6.029,13.3036,4.60099,2470.754,2023-5-26T04:30:02Z
2023-05-26T02:30:52Z,42.805,6.029,13.3026,4.60104,2470.787,2023-5-26T04:33:05Z
2023-05-26T02:33:55Z,42.805,6.029,13.3026,4.60089,2470.763,2023-5-26T04:36:08Z
2023-05-26T02:36:58Z,42.805,6.029,13.3029,4.60097,2470.754,2023-5-26T04:39:11Z
2023-05-26T02:40:01Z,42.805,6.029,13.3026,4.60090,2470.787,2023-5-26T04:42:14Z
2023-05-26T02:43:05Z,42.805,6.029,13.3022,4.60092,2470.8,2023-5-26T04:45:17Z
2023-05-26T02:46:08Z,42.805,6.029,13.3025,4.60101,2470.787,2023-5-26T04:48:20Z
2023-05-26T02:49:11Z,42.805,6.029,13.3024,4.60094,2470.74,2023-5-26T04:51:23Z
2023-05-26T02:52:14Z,42.805,6.029,13.3025,4.60089,2470.777,2023-5-26T04:54:26Z
2023-05-26T02:55:17Z,42.805,6.029,13.3031,4.60094,2470.74,2023-5-26T04:57:29Z
2023-05-26T02:58:20Z,42.805,6.029,13.3024,4.60092,2470.74,2023-5-26T05:00:32Z
2023-05-26T03:01:23Z,42.805,6.029,13.3025,4.60091,2470.74,2023-5-26T05:03:35Z
2023-05-26T03:04:26Z,42.805,6.029,13.3026,4.60102,2470.777,2023-5-26T05:06:38Z
2023-05-26T03:07:29Z,42.805,6.029,13.3028,4.60096,2470.777,2023-5-26T05:09:42Z
2023-05-26T03:10:32Z,42.805,6.029,13.3034,4.60104,2470.74,2023-5-26T05:12:45Z
2023-05-26T03:13:35Z,42.805,6.029,13.3026,4.60092,2470.74,2023-5-26T05:15:48Z
2023-05-26T03:16:38Z,42.805,6.029,13.3027,4.60103,2470.717,2023-5-26T05:18:51Z
2023-05-26T03:19:42Z,42.805,6.029,13.3026,4.60097,2470.74,2023-5-26T05:21:54Z
2023-05-26T03:22:45Z,42.805,6.029,13.3026,4.60098,2470.717,2023-5-26T05:24:57Z
2023-05-26T03:25:48Z,42.805,6.029,13.3034,4.60101,2470.763,2023-5-26T05:28:00Z
2023-05-26T03:28:51Z,42.805,6.029,13.3031,4.60102,2470.703,2023-5-26T05:31:03Z
2023-05-26T03:31:54Z,42.805,6.029,13.3034,4.60092,2470.717,2023-5-26T05:34:06Z
2023-05-26T03:34:57Z,42.805,6.029,13.3029,4.60090,2470.763,2023-5-26T05:37:09Z
2023-05-26T03:38:00Z,42.805,6.029,13.3029,4.60088,2470.74,2023-5-26T05:40:12Z
2023-05-26T03:41:03Z,42.805,6.029,13.3026,4.60089,2470.74,2023-5-26T05:43:15Z
2023-05-26T03:44:06Z,42.805,6.029,13.3026,4.60092,2470.703,2023-5-26T05:46:19Z
2023-05-26T03:47:09Z,42.805,6.029,13.3032,4.60099,2470.73,2023-5-26T05:49:22Z
2023-05-26T03:50:12Z,42.805,6.029,13.3031,4.60097,2470.693,2023-5-26T05:52:25Z
2023-05-26T03:53:15Z,42.805,6.029,13.3031,4.60095,2470.74,2023-5-26T05:55:28Z
2023-05-26T03:56:18Z,42.805,6.029,13.3021,4.60089,2470.73,2023-5-26T05:58:31Z
2023-05-26T03:59:22Z,42.805,6.029,13.3026,4.60097,2470.74,2023-5-26T06:01:34Z
2023-05-26T04:02:25Z,42.805,6.029,13.3024,4.60091,2470.73,2023-5-26T06:04:37Z
2023-05-26T04:05:28Z,42.805,6.029,13.3026,4.60092,2470.754,2023-5-26T06:07:40Z
2023-05-26T04:08:31Z,42.805,6.029,13.3028,4.60092,2470.717,2023-5-26T06:10:43Z
2023-05-26T04:11:34Z,42.805,6.029,13.3029,4.60092,2470.73,2023-5-26T06:13:46Z
2023-05-26T04:14:37Z,42.805,6.029,13.3031,4.60103,2470.717,2023-5-26T06:16:49Z
2023-05-26T04:17:40Z,42.805,6.029,13.3029,4.60092,2470.74,2023-5-26T06:19:52Z
2023-05-26T04:20:43Z,42.805,6.029,13.3026,4.60094,2470.693,2023-5-26T06:22:55Z
2023-05-26T04:23:46Z,42.805,6.029,13.3026,4.60089,2470.693,2023-5-26T06:25:59Z
2023-05-26T04:26:49Z,42.805,6.029,13.3030,4.60092,2470.74,2023-5-26T06:29:02Z
2023-05-26T04:29:52Z,42.805,6.029,13.3028,4.60092,2470.693,2023-5-26T06:32:05Z
2023-05-26T04:32:55Z,42.805,6.029,13.3032,4.60104,2470.73,2023-5-26T06:35:08Z
2023-05-26T04:35:58Z,42.805,6.029,13.3030,4.60092,2470.717,2023-5-26T06:38:11Z
2023-05-26T04:39:02Z,42.805,6.029,13.3036,4.60098,2470.693,2023-5-26T06:41:14Z
2023-05-26T04:42:05Z,42.805,6.029,13.3029,4.60099,2470.684,2023-5-26T06:44:17Z
2023-05-26T04:45:08Z,42.805,6.029,13.3031,4.60094,2470.717,2023-5-26T06:47:20Z
2023-05-26T04:48:11Z,42.805,6.029,13.3028,4.60087,2470.693,2023-5-26T06:50:23Z
2023-05-26T04:51:14Z,42.805,6.029,13.3026,4.60097,2470.717,2023-5-26T06:53:26Z
2023-05-26T04:54:17Z,42.805,6.029,13.3028,4.60097,2470.707,2023-5-26T06:56:29Z
2023-05-26T04:57:20Z,42.805,6.029,13.3032,4.60106,2470.707,2023-5-26T06:59:32Z
2023-05-26T05:00:23Z,42.805,6.029,13.3033,4.60114,2470.693,2023-5-26T07:02:36Z
2023-05-26T05:03:26Z,42.805,6.029,13.3034,4.60109,2470.707,2023-5-26T07:05:39Z
2023-05-26T05:06:29Z,42.805,6.029,13.3026,4.60090,2470.67,2023-5-26T07:08:42Z
2023-05-26T05:09:32Z,42.805,6.029,13.3035,4.60096,2470.754,2023-5-26T07:11:45Z
2023-05-26T05:12:35Z,42.805,6.029,13.3029,4.60110,2470.693,2023-5-26T07:14:48Z
2023-05-26T05:15:39Z,42.805,6.029,13.3030,4.60105,2470.67,2023-5-26T07:17:51Z
2023-05-26T05:18:42Z,42.805,6.029,13.3031,4.60094,2470.73,2023-5-26T07:20:54Z
2023-05-26T05:21:45Z,42.805,6.029,13.3027,4.60108,2470.67,2023-5-26T07:23:57Z
2023-05-26T05:24:48Z,42.805,6.029,13.3029,4.60094,2470.693,2023-5-26T07:27:00Z
2023-05-26T05:27:51Z,42.805,6.029,13.3032,4.60095,2470.73,2023-5-26T07:30:03Z
2023-05-26T05:30:54Z,42.805,6.029,13.3029,4.60100,2470.73,2023-5-26T07:33:06Z
2023-05-26T05:33:57Z,42.805,6.029,13.3035,4.60095,2470.67,2023-5-26T07:36:09Z
2023-05-26T05:37:00Z,42.805,6.029,13.3030,4.60090,2470.707,2023-5-26T07:39:12Z
2023-05-26T05:40:03Z,42.805,6.029,13.3027,4.60089,2470.67,2023-5-26T07:42:16Z
2023-05-26T05:43:06Z,42.805,6.029,13.3027,4.60096,2470.67,2023-5-26T07:45:19Z
2023-05-26T05:46:09Z,42.805,6.029,13.3033,4.60092,2470.646,2023-5-26T07:48:22Z
2023-05-26T05:49:12Z,42.805,6.029,13.3030,4.60097,2470.684,2023-5-26T07:51:25Z
2023-05-26T05:52:15Z,42.805,6.029,13.3031,4.60096,2470.707,2023-5-26T07:54:28Z
2023-05-26T05:55:19Z,42.805,6.029,13.3039,4.60114,2470.707,2023-5-26T07:57:31Z
2023-05-26T05:58:22Z,42.805,6.029,13.3035,4.60097,2470.67,2023-5-26T08:00:34Z
2023-05-26T06:01:25Z,42.805,6.029,13.3036,4.60110,2470.693,2023-5-26T08:03:37Z
2023-05-26T06:04:28Z,42.805,6.029,13.3034,4.60099,2470.693,2023-5-26T08:06:40Z
2023-05-26T06:07:31Z,42.805,6.029,13.3035,4.60103,2470.693,2023-5-26T08:09:43Z
2023-05-26T06:10:34Z,42.805,6.029,13.3034,4.60102,2470.693,2023-5-26T08:12:46Z
2023-05-26T06:13:37Z,42.805,6.029,13.3029,4.60103,2470.684,2023-5-26T08:15:49Z
2023-05-26T06:16:40Z,42.805,6.029,13.3036,4.60104,2470.693,2023-5-26T08:18:52Z
2023-05-26T06:19:43Z,42.805,6.029,13.3036,4.60114,2470.707,2023-5-26T08:21:56Z
2023-05-26T06:22:46Z,42.805,6.029,13.3030,4.60099,2470.684,2023-5-26T08:24:59Z
2023-05-26T06:25:49Z,42.805,6.029,13.3029,4.60097,2470.693,2023-5-26T08:28:02Z
2023-05-26T06:28:52Z,42.805,6.029,13.3031,4.60096,2470.684,2023-5-26T08:31:05Z
2023-05-26T06:31:55Z,42.805,6.029,13.3032,4.60104,2470.67,2023-5-26T08:34:07Z
2023-05-26T06:34:58Z,42.805,6.029,13.3033,4.60101,2470.693,2023-5-26T08:37:11Z
2023-05-26T06:38:01Z,42.805,6.029,13.3031,4.60101,2470.656,2023-5-26T08:40:14Z
2023-05-26T06:41:04Z,42.805,6.029,13.3032,4.60097,2470.67,2023-5-26T08:43:17Z
2023-05-26T06:44:07Z,42.805,6.029,13.3038,4.60101,2470.684,2023-5-26T08:46:20Z
2023-05-26T06:47:10Z,42.805,6.029,13.3036,4.60097,2470.67,2023-5-26T08:49:23Z
2023-05-26T06:50:14Z,42.805,6.029,13.3036,4.60107,2470.67,2023-5-26T08:52:26Z
2023-05-26T06:53:17Z,42.805,6.029,13.3034,4.60109,2470.684,2023-5-26T08:55:29Z
2023-05-26T06:56:20Z,42.805,6.029,13.3038,4.60111,2470.67,2023-5-26T08:58:32Z
2023-05-26T06:59:23Z,42.805,6.029,13.3035,4.60103,2470.67,2023-5-26T09:01:35Z
2023-05-26T07:02:26Z,42.805,6.029,13.3031,4.60112,2470.646,2023-5-26T09:04:38Z
2023-05-26T07:05:29Z,42.805,6.029,13.3031,4.60101,2470.67,2023-5-26T09:07:41Z
2023-05-26T07:08:32Z,42.805,6.029,13.3039,4.60107,2470.67,2023-5-26T09:10:44Z
2023-05-26T07:11:35Z,42.805,6.029,13.3036,4.60112,2470.67,2023-5-26T09:13:47Z
2023-05-26T07:14:38Z,42.805,6.029,13.3039,4.60109,2470.646,2023-5-26T09:16:51Z
2023-05-26T07:17:41Z,42.805,6.029,13.3037,4.60106,2470.646,2023-5-26T09:19:54Z
2023-05-26T07:20:44Z,42.805,6.029,13.3034,4.60101,2470.684,2023-5-26T09:22:57Z
2023-05-26T07:23:47Z,42.805,6.029,13.3032,4.60106,2470.707,2023-5-26T09:26:00Z
2023-05-26T07:26:51Z,42.805,6.029,13.3039,4.60124,2470.693,2023-5-26T09:29:03Z
2023-05-26T07:29:54Z,42.805,6.029,13.3035,4.60100,2470.646,2023-5-26T09:32:06Z
2023-05-26T07:32:57Z,42.805,6.029,13.3037,4.60103,2470.67,2023-5-26T09:35:09Z
2023-05-26T07:36:00Z,42.805,6.029,13.3039,4.60107,2470.67,2023-5-26T09:38:12Z
2023-05-26T07:39:03Z,42.805,6.029,13.3038,4.60127,2470.693,2023-5-26T09:41:15Z
2023-05-26T07:42:06Z,42.805,6.029,13.3033,4.60100,2470.661,2023-5-26T09:44:18Z
2023-05-26T07:45:09Z,42.805,6.029,13.3034,4.60102,2470.707,2023-5-26T09:47:21Z
2023-05-26T07:48:12Z,42.805,6.029,13.3037,4.60113,2470.646,2023-5-26T09:50:24Z
2023-05-26T07:51:15Z,42.805,6.029,13.3036,4.60112,2470.661,2023-5-26T09:53:28Z
2023-05-26T07:54:18Z,42.805,6.029,13.3036,4.60122,2470.646,2023-5-26T09:56:31Z
2023-05-26T07:57:21Z,42.805,6.029,13.3034,4.60106,2470.646,2023-5-26T09:59:34Z
2023-05-26T08:00:24Z,42.805,6.029,13.3037,4.60102,2470.67,2023-5-26T10:02:37Z
2023-05-26T08:03:27Z,42.805,6.029,13.3037,4.60102,2470.67,2023-5-26T10:05:40Z
2023-05-26T08:06:31Z,42.805,6.029,13.3029,4.60098,2470.67,2023-5-26T10:08:43Z
2023-05-26T08:09:34Z,42.805,6.029,13.3033,4.60102,2470.693,2023-5-26T10:11:46Z
2023-05-26T08:12:37Z,42.805,6.029,13.3041,4.60114,2470.646,2023-5-26T10:14:49Z
2023-05-26T08:15:40Z,42.805,6.029,13.3036,4.60113,2470.67,2023-5-26T10:17:52Z
2023-05-26T08:18:43Z,42.805,6.029,13.3043,4.60105,2470.684,2023-5-26T10:20:55Z
2023-05-26T08:21:46Z,42.805,6.029,13.3032,4.60104,2470.693,2023-5-26T10:23:58Z
2023-05-26T08:24:49Z,42.805,6.029,13.3034,4.60103,2470.693,2023-5-26T10:27:01Z
2023-05-26T08:27:52Z,42.805,6.029,13.3039,4.60122,2470.67,2023-5-26T10:30:05Z
2023-05-26T08:30:54Z,42.805,6.029,13.3035,4.60116,2470.684,2023-5-26T10:33:06Z
2023-05-26T08:33:57Z,42.805,6.029,13.3035,4.60097,2470.693,2023-5-26T10:36:09Z
2023-05-26T08:37:00Z,42.805,6.029,13.3038,4.60115,2470.67,2023-5-26T10:39:12Z
2023-05-26T08:40:03Z,42.805,6.029,13.3034,4.60114,2470.67,2023-5-26T10:42:15Z
2023-05-26T08:43:06Z,42.805,6.029,13.3039,4.60116,2470.684,2023-5-26T10:45:18Z
2023-05-26T08:46:09Z,42.805,6.029,13.3036,4.60108,2470.67,2023-5-26T10:48:22Z
2023-05-26T08:49:12Z,42.805,6.029,13.3035,4.60109,2470.661,2023-5-26T10:51:25Z
2023-05-26T08:52:15Z,42.805,6.029,13.3031,4.60102,2470.67,2023-5-26T10:54:28Z
2023-05-26T08:55:18Z,42.805,6.029,13.3031,4.60099,2470.661,2023-5-26T10:57:31Z
2023-05-26T08:58:21Z,42.805,6.029,13.3039,4.60098,2470.707,2023-5-26T11:00:34Z
2023-05-26T09:01:25Z,42.805,6.029,13.3036,4.60103,2470.67,2023-5-26T11:03:37Z
2023-05-26T09:04:28Z,42.805,6.029,13.3036,4.60105,2470.656,2023-5-26T11:06:40Z
2023-05-26T09:07:31Z,42.805,6.029,13.3039,4.60112,2470.67,2023-5-26T11:09:43Z
2023-05-26T09:10:34Z,42.805,6.029,13.3035,4.60132,2470.67,2023-5-26T11:12:46Z
2023-05-26T09:13:37Z,42.805,6.029,13.3037,4.60122,2470.67,2023-5-26T11:15:49Z
2023-05-26T09:16:40Z,42.805,6.029,13.3033,4.60112,2470.707,2023-5-26T11:18:52Z
2023-05-26T09:19:43Z,42.805,6.029,13.3036,4.60109,2470.693,2023-5-26T11:21:55Z
2023-05-26T09:22:46Z,42.805,6.029,13.3036,4.60115,2470.707,2023-5-26T11:24:59Z
2023-05-26T09:25:49Z,42.805,6.029,13.3031,4.60115,2470.707,2023-5-26T11:28:02Z
2023-05-26T09:28:52Z,42.805,6.029,13.3029,4.60104,2470.73,2023-5-26T11:31:05Z
2023-05-26T09:31:55Z,42.805,6.029,13.3039,4.60112,2470.67,2023-5-26T11:34:08Z
2023-05-26T09:34:58Z,42.805,6.029,13.3032,4.60108,2470.67,2023-5-26T11:37:11Z
2023-05-26T09:38:02Z,42.805,6.029,13.3034,4.60112,2470.73,2023-5-26T11:40:14Z
2023-05-26T09:41:05Z,42.805,6.029,13.3031,4.60108,2470.67,2023-5-26T11:43:17Z
2023-05-26T09:44:08Z,42.805,6.029,13.3037,4.60108,2470.717,2023-5-26T11:46:20Z
2023-05-26T09:47:11Z,42.805,6.029,13.3034,4.60119,2470.693,2023-5-26T11:49:23Z
2023-05-26T09:50:14Z,42.805,6.029,13.3035,4.60119,2470.646,2023-5-26T11:52:26Z
2023-05-26T09:53:17Z,42.805,6.029,13.3036,4.60113,2470.707,2023-5-26T11:55:29Z
2023-05-26T09:56:20Z,42.805,6.029,13.3036,4.60117,2470.693,2023-5-26T11:58:32Z
2023-05-26T09:59:23Z,42.805,6.029,13.3041,4.60116,2470.67,2023-5-26T12:01:36Z
2023-05-26T10:02:26Z,42.805,6.029,13.3044,4.60139,2470.717,2023-5-26T12:04:39Z
2023-05-26T10:05:29Z,42.805,6.029,13.3042,4.60134,2470.707,2023-5-26T12:07:42Z
2023-05-26T10:08:32Z,42.805,6.029,13.3029,4.60114,2470.693,2023-5-26T12:10:45Z
2023-05-26T10:11:35Z,42.805,6.029,13.3037,4.60106,2470.656,2023-5-26T12:13:48Z
2023-05-26T10:14:39Z,42.805,6.029,13.3040,4.60125,2470.67,2023-5-26T12:16:51Z
2023-05-26T10:17:42Z,42.805,6.029,13.3034,4.60131,2470.679,2023-5-26T12:19:54Z
2023-05-26T10:20:45Z,42.805,6.029,13.3036,4.60114,2470.707,2023-5-26T12:22:57Z
2023-05-26T10:23:48Z,42.805,6.029,13.3034,4.60108,2470.684,2023-5-26T12:26:00Z
2023-05-26T10:26:51Z,42.805,6.029,13.3031,4.60126,2470.646,2023-5-26T12:29:03Z
2023-05-26T10:29:54Z,42.805,6.029,13.3037,4.60122,2470.661,2023-5-26T12:32:06Z
2023-05-26T10:32:57Z,42.805,6.029,13.3034,4.60127,2470.67,2023-5-26T12:35:09Z
2023-05-26T10:36:00Z,42.805,6.029,13.3043,4.60138,2470.656,2023-5-26T12:38:13Z
2023-05-26T10:39:03Z,42.805,6.029,13.3039,4.60121,2470.646,2023-5-26T12:41:16Z
2023-05-26T10:42:06Z,42.805,6.029,13.3031,4.60113,2470.684,2023-5-26T12:44:19Z
2023-05-26T10:45:09Z,42.805,6.029,13.3033,4.60110,2470.684,2023-5-26T12:47:22Z
2023-05-26T10:48:12Z,42.805,6.029,13.3038,4.60127,2470.67,2023-5-26T12:50:25Z
2023-05-26T10:51:16Z,42.805,6.029,13.3030,4.60123,2470.693,2023-5-26T12:53:28Z
2023-05-26T10:54:19Z,42.805,6.029,13.3040,4.60136,2470.74,2023-5-26T12:56:31Z
2023-05-26T10:57:22Z,42.805,6.029,13.3041,4.60138,2470.67,2023-5-26T12:59:34Z
2023-05-26T11:00:25Z,42.805,6.029,13.3058,4.60140,2470.693,2023-5-26T13:02:37Z
2023-05-26T11:03:28Z,42.805,6.029,13.3034,4.60119,2470.67,2023-5-26T13:05:40Z
2023-05-26T11:06:31Z,42.805,6.029,13.3038,4.60109,2470.684,2023-5-26T13:08:43Z
2023-05-26T11:09:34Z,42.805,6.029,13.3044,4.60116,2470.693,2023-5-26T13:11:46Z
2023-05-26T11:12:37Z,42.805,6.029,13.3035,4.60121,2470.67,2023-5-26T13:14:50Z
2023-05-26T11:15:40Z,42.805,6.029,13.3033,4.60125,2470.693,2023-5-26T13:17:53Z
2023-05-26T11:18:43Z,42.805,6.029,13.3039,4.60112,2470.67,2023-5-26T13:20:56Z
2023-05-26T11:21:46Z,42.805,6.029,13.3041,4.60126,2470.67,2023-5-26T13:23:59Z
2023-05-26T11:24:49Z,42.805,6.029,13.3036,4.60129,2470.73,2023-5-26T13:27:02Z
2023-05-26T11:27:53Z,42.805,6.029,13.3037,4.60125,2470.693,2023-5-26T13:30:05Z
2023-05-26T11:30:56Z,42.805,6.029,13.3041,4.60137,2470.67,2023-5-26T13:33:08Z
2023-05-26T11:33:59Z,42.805,6.029,13.3041,4.60131,2470.693,2023-5-26T13:36:11Z
2023-05-26T11:37:02Z,42.805,6.029,13.3039,4.60124,2470.684,2023-5-26T13:39:14Z
2023-05-26T11:40:05Z,42.805,6.029,13.3034,4.60117,2470.67,2023-5-26T13:42:17Z
2023-05-26T11:43:08Z,42.805,6.029,13.3038,4.60119,2470.67,2023-5-26T13:45:20Z
2023-05-26T12:08:08Z,42.805,6.029,13.3036,4.60119,2470.693,2023-5-26T14:10:21Z
2023-05-26T12:11:11Z,42.805,6.029,13.3036,4.60133,2470.717,2023-5-26T14:13:24Z
2023-05-26T12:14:14Z,42.805,6.029,13.3039,4.60112,2470.693,2023-5-26T14:16:27Z
2023-05-26T12:17:18Z,42.805,6.029,13.3037,4.60122,2470.67,2023-5-26T14:19:30Z
2023-05-26T12:20:21Z,42.805,6.029,13.3040,4.60121,2470.67,2023-5-26T14:22:33Z
2023-05-26T12:23:24Z,42.805,6.029,13.3035,4.60119,2470.661,2023-5-26T14:25:36Z
2023-05-26T12:26:27Z,42.805,6.029,13.3037,4.60117,2470.684,2023-5-26T14:28:39Z
2023-05-26T12:29:30Z,42.805,6.029,13.3041,4.60132,2470.717,2023-5-26T14:31:42Z
2023-05-26T12:32:33Z,42.805,6.029,13.3034,4.60115,2470.646,2023-5-26T14:34:45Z
2023-05-26T12:35:36Z,42.805,6.029,13.3039,4.60125,2470.646,2023-5-26T14:37:48Z
2023-05-26T12:38:39Z,42.805,6.029,13.3040,4.60118,2470.646,2023-5-26T14:40:52Z
2023-05-26T12:41:42Z,42.805,6.029,13.3042,4.60117,2470.684,2023-5-26T14:43:55Z
2023-05-26T12:44:45Z,42.805,6.029,13.3036,4.60140,2470.67,2023-5-26T14:46:58Z
2023-05-26T12:47:48Z,42.805,6.029,13.3048,4.60132,2470.693,2023-5-26T14:50:01Z
2023-05-26T12:50:52Z,42.805,6.029,13.3034,4.60129,2470.684,2023-5-26T14:53:04Z
2023-05-26T12:53:55Z,42.805,6.029,13.3029,4.60130,2470.684,2023-5-26T14:56:07Z
2023-05-26T12:56:58Z,42.805,6.029,13.3057,4.60127,2470.693,2023-5-26T14:59:10Z
2023-05-26T13:00:01Z,42.805,6.029,13.3039,4.60130,2470.684,2023-5-26T15:02:13Z
2023-05-26T13:03:04Z,42.805,6.029,13.3041,4.60127,2470.67,2023-5-26T15:05:16Z
2023-05-26T13:06:07Z,42.805,6.029,13.3039,4.60124,2470.646,2023-5-26T15:08:19Z
2023-05-26T13:09:10Z,42.805,6.029,13.3043,4.60143,2470.67,2023-5-26T15:11:22Z
2023-05-26T13:12:13Z,42.805,6.029,13.3034,4.60126,2470.693,2023-5-26T15:14:26Z
2023-05-26T13:15:16Z,42.805,6.029,13.3048,4.60126,2470.646,2023-5-26T15:17:29Z
2023-05-26T13:18:19Z,42.805,6.029,13.3038,4.60155,2470.656,2023-5-26T15:20:32Z
2023-05-26T13:21:22Z,42.805,6.029,13.3041,4.60136,2470.67,2023-5-26T15:23:35Z
2023-05-26T13:24:25Z,42.805,6.029,13.3039,4.60128,2470.707,2023-5-26T15:26:38Z
2023-05-26T13:27:29Z,42.805,6.029,13.3034,4.60125,2470.67,2023-5-26T15:29:41Z
2023-05-26T13:30:32Z,42.805,6.029,13.3036,4.60132,2470.693,2023-5-26T15:32:44Z
2023-05-26T13:33:35Z,42.805,6.029,13.3037,4.60132,2470.684,2023-5-26T15:35:47Z
2023-05-26T13:36:38Z,42.805,6.029,13.3036,4.60127,2470.707,2023-5-26T15:38:50Z
2023-05-26T13:39:41Z,42.805,6.029,13.3043,4.60122,2470.67,2023-5-26T15:41:53Z
2023-05-26T13:42:44Z,42.805,6.029,13.3034,4.60142,2470.646,2023-5-26T15:44:56Z
2023-05-26T13:45:47Z,42.805,6.029,13.3041,4.60130,2470.67,2023-5-26T15:47:59Z
2023-05-26T13:48:50Z,42.805,6.029,13.3041,4.60144,2470.646,2023-5-26T15:51:03Z
2023-05-26T13:51:53Z,42.805,6.029,13.3044,4.60129,2470.633,2023-5-26T15:54:06Z
2023-05-26T13:54:56Z,42.805,6.029,13.3042,4.60147,2470.646,2023-5-26T15:57:09Z
2023-05-26T13:57:59Z,42.805,6.029,13.3044,4.60131,2470.646,2023-5-26T16:00:12Z
2023-05-26T14:01:02Z,42.805,6.029,13.3039,4.60133,2470.646,2023-5-26T16:03:15Z
2023-05-26T14:04:06Z,42.805,6.029,13.3043,4.60117,2470.646,2023-5-26T16:06:18Z
2023-05-26T14:07:09Z,42.805,6.029,13.3046,4.60122,2470.646,2023-5-26T16:09:21Z
2023-05-26T14:10:12Z,42.805,6.029,13.3038,4.60114,2470.646,2023-5-26T16:12:24Z
2023-05-26T14:13:15Z,42.805,6.029,13.3037,4.60121,2470.67,2023-5-26T16:15:27Z
2023-05-26T14:16:18Z,42.805,6.029,13.3039,4.60133,2470.646,2023-5-26T16:18:30Z
2023-05-26T14:19:21Z,42.805,6.029,13.3040,4.60125,2470.624,2023-5-26T16:21:33Z
2023-05-26T14:22:24Z,42.805,6.029,13.3034,4.60117,2470.67,2023-5-26T16:24:36Z
2023-05-26T14:25:27Z,42.805,6.029,13.3037,4.60125,2470.646,2023-5-26T16:27:40Z
2023-05-26T14:28:30Z,42.805,6.029,13.3039,4.60122,2470.624,2023-5-26T16:30:43Z
2023-05-26T14:31:35Z,42.805,6.029,13.3037,4.60119,2470.637,2023-5-26T16:33:47Z
2023-05-26T14:34:38Z,42.805,6.029,13.3035,4.60121,2470.646,2023-5-26T16:36:51Z
2023-05-26T14:37:41Z,42.805,6.029,13.3039,4.60127,2470.661,2023-5-26T16:39:54Z
2023-05-26T14:40:44Z,42.805,6.029,13.3039,4.60127,2470.614,2023-5-26T16:42:57Z
2023-05-26T14:43:47Z,42.805,6.029,13.3041,4.60130,2470.624,2023-5-26T16:46:00Z
2023-05-26T14:46:50Z,42.805,6.029,13.3035,4.60125,2470.646,2023-5-26T16:49:03Z
2023-05-26T14:49:54Z,42.805,6.029,13.3033,4.60117,2470.624,2023-5-26T16:52:06Z
2023-05-26T14:52:57Z,42.805,6.029,13.3039,4.60125,2470.624,2023-5-26T16:55:09Z
2023-05-26T14:56:00Z,42.805,6.029,13.3036,4.60122,2470.646,2023-5-26T16:58:12Z
2023-05-26T14:59:03Z,42.805,6.029,13.3039,4.60134,2470.646,2023-5-26T17:01:15Z
2023-05-26T15:02:06Z,42.805,6.029,13.3040,4.60131,2470.624,2023-5-26T17:04:18Z
2023-05-26T15:05:09Z,42.805,6.029,13.3042,4.60137,2470.661,2023-5-26T17:07:21Z
2023-05-26T15:08:12Z,42.805,6.029,13.3028,4.60117,2470.67,2023-5-26T17:10:24Z
2023-05-26T15:11:15Z,42.805,6.029,13.3041,4.60116,2470.6,2023-5-26T17:13:28Z
2023-05-26T15:14:18Z,42.805,6.029,13.3041,4.60127,2470.624,2023-5-26T17:16:31Z
2023-05-26T15:17:21Z,42.805,6.029,13.3044,4.60131,2470.661,2023-5-26T17:19:34Z
2023-05-26T15:20:24Z,42.805,6.029,13.3042,4.60125,2470.624,2023-5-26T17:22:37Z
2023-05-26T15:23:27Z,42.805,6.029,13.3046,4.60119,2470.637,2023-5-26T17:25:40Z
2023-05-26T15:26:31Z,42.805,6.029,13.3037,4.60113,2470.624,2023-5-26T17:28:43Z
2023-05-26T15:29:34Z,42.805,6.029,13.3035,4.60110,2470.637,2023-5-26T17:31:46Z
2023-05-26T15:32:37Z,42.805,6.029,13.3031,4.60122,2470.637,2023-5-26T17:34:49Z
2023-05-26T15:35:40Z,42.805,6.029,13.3036,4.60119,2470.646,2023-5-26T17:37:52Z